QPF
0.00 0.00 0.00 0.00 0.00 0.00 0.00 0.00 0.00 0.00 0.00 0.00 0.00 0.00 0.00 0.00 0.00 0.00 0.00 0.00 0.00 0.01 0.02 0.01 0.01 0.00 0.00 0.00 0.02 0.02 0.01 0.00 0.00 0.00 0.00 0.00 0.00 0.00 0.00 0.00 0.00 0.00 0.00
0.00 0.00 0.00 0.00 0.00 0.00 0.00 0.00 0.00 0.00 0.00 0.00 0.00 0.00 0.00 0.00 0.00 0.00 0.00 0.00 0.00 0.00 0.00 0.00 0.00 0.01 0.00 0.00 0.01 0.03 0.03 0.01 0.00 0.04 0.00 0.00 0.01 0.00 0.00 0.00 0.00 0.00 0.00
0.00 0.00 0.00 0.00 0.00 0.00 0.00 0.00 0.00 0.00 0.00 0.00 0.00 0.00 0.00 0.00 0.00 0.00 0.00 0.00 0.01 0.03 0.05 0.05 0.02 0.03 0.02 0.01 0.00 0.01 0.02 0.04 0.02 0.00 0.00 0.00 0.00 0.01 0.05 0.01 0.00 0.00 0.00
0.00 0.00 0.00 0.00 0.00 0.00 0.00 0.00 0.00 0.00 0.00 0.00 0.00 0.01 0.01 0.01 0.01 0.00 0.00 0.01 0.02 0.02 0.02 0.08 0.04 0.04 0.06 0.06 0.02 0.00 0.02 0.04 0.06 0.04 0.01 0.00 0.00 0.01 0.05 0.07 0.06 0.06 0.06
0.00 0.00 0.00 0.00 0.00 0.00 0.00 0.00 0.00 0.00 0.00 0.00 0.00 0.01 0.02 0.03 0.04 0.06 0.05 0.05 0.03 0.01 0.00 0.02 0.02 0.02 0.06 0.17 0.11 0.05 0.02 0.01 0.04 0.06 0.05 0.05 0.00 0.00 0.04 0.01 0.00 0.00 0.03
0.00 0.00 0.00 0.00 0.00 0.00 0.00 0.00 0.00 0.00 0.00 0.00 0.00 0.00 0.00 0.00 0.01 0.07 0.07 0.05 0.07 0.07 0.06 0.05 0.03 0.12 0.11 0.12 0.07 0.02 0.04 0.04 0.02 0.05 0.04 0.05 0.03 0.03 0.01 0.00 0.01 0.07 0.02
0.00 0.00 0.00 0.00 0.00 0.00 0.00 0.00 0.00 0.00 0.00 0.00 0.00 0.00 0.00 0.00 0.00 0.00 0.01 0.01 0.01 0.03 0.05 0.06 0.05 0.01 0.03 0.02 0.11 0.08 0.01 0.02 0.02 0.03 0.06 0.05 0.05 0.07 0.08 0.04 0.03 0.06 0.04
0.00 0.00 0.00 0.00 0.00 0.00 0.00 0.00 0.00 0.00 0.00 0.00 0.00 0.00 0.00 0.00 0.00 0.00 0.00 0.00 0.00 0.00 0.00 0.02 0.03 0.05 0.04 0.03 0.04 0.04 0.02 0.01 0.00 0.00 0.00 0.00 0.01 0.06 0.08 0.07 0.06 0.06 0.04
0.00 0.00 0.00 0.00 0.00 0.00 0.00 0.00 0.00 0.00 0.00 0.00 0.00 0.00 0.00 0.00 0.00 0.00 0.00 0.00 0.00 0.00 0.00 0.00 0.00 0.01 0.00 0.08 0.06 0.02 0.01 0.00 0.00 0.00 0.00 0.00 0.02 0.06 0.07 0.08 0.03 0.02 0.00
0.00 0.00 0.00 0.00 0.00 0.00 0.00 0.00 0.00 0.00 0.00 0.00 0.00 0.00 0.00 0.00 0.00 0.00 0.00 0.00 0.00 0.00 0.00 0.00 0.00 0.00 0.00 0.05 0.04 0.02 0.04 0.02 0.04 0.02 0.00 0.00 0.00 0.00 0.00 0.02 0.03 0.05 0.05
0.00 0.00 0.00 0.00 0.00 0.00 0.00 0.00 0.00 0.00 0.00 0.00 0.00 0.00 0.00 0.00 0.00 0.00 0.00 0.00 0.00 0.00 0.00 0.00 0.00 0.00 0.00 0.00 0.00 0.00 0.01 0.05 0.06 0.07 0.04 0.02 0.01 0.00 0.01 0.00 0.02 0.05 0.05
0.00 0.00 0.00 0.00 0.00 0.00 0.00 0.00 0.00 0.00 0.00 0.00 0.00 0.00 0.00 0.00 0.00 0.00 0.00 0.00 0.00 0.00 0.00 0.00 0.00 0.00 0.00 0.00 0.00 0.00 0.00 0.04 0.07 0.08 0.09 0.03 0.00 0.00 0.00 0.01 0.01 0.00 0.02
0.00 0.00 0.00 0.00 0.00 0.00 0.00 0.00 0.00 0.00 0.00 0.00 0.00 0.00 0.00 0.00 0.00 0.00 0.00 0.00 0.00 0.00 0.00 0.00 0.00 0.00 0.00 0.00 0.00 0.01 0.01 0.00 0.01 0.02 0.02 0.01 0.00 0.00 0.01 0.05 0.08 0.04 0.03
0.00 0.00 0.00 0.00 0.00 0.00 0.00 0.00 0.00 0.00 0.00 0.00 0.01 0.00 0.00 0.00 0.00 0.00 0.01 0.02 0.01 0.01 0.00 0.00 0.00 0.00 0.00 0.00 0.00 0.00 0.00 0.00 0.00 0.00 0.00 0.01 0.03 0.03 0.02 0.03 0.10 0.11 0.08
0.00 0.00 0.00 0.00 0.00 0.00 0.00 0.00 0.00 0.00 0.00 0.00 0.00 0.00 0.01 0.01 0.00 0.00 0.00 0.01 0.03 0.03 0.02 0.05 0.04 0.01 0.00 0.01 0.01 0.00 0.00 0.00 0.00 0.00 0.00 0.00 0.03 0.07 0.08 0.07 0.16 0.17 0.11
0.00 0.00 0.00 0.00 0.00 0.00 0.00 0.00 0.00 0.00 0.00 0.00 0.00 0.00 0.00 0.00 0.00 0.00 0.00 0.00 0.00 0.00 0.00 0.02 0.02 0.02 0.01 0.02 0.04 0.03 0.02 0.00 0.00 0.00 0.00 0.00 0.00 0.01 0.04 0.10 0.16 0.17 0.14
0.00 0.00 0.00 0.00 0.00 0.00 0.00 0.00 0.00 0.00 0.00 0.00 0.00 0.00 0.00 0.00 0.00 0.00 0.00 0.00 0.00 0.00 0.00 0.00 0.01 0.01 0.00 0.01 0.03 0.04 0.01 0.00 0.00 0.00 0.00 0.00 0.00 0.00 0.00 0.02 0.04 0.06 0.08
0.00 0.00 0.00 0.00 0.00 0.00 0.00 0.00 0.00 0.00 0.00 0.00 0.00 0.00 0.00 0.00 0.00 0.00 0.00 0.00 0.00 0.00 0.00 0.00 0.00 0.00 0.00 0.00 0.00 0.03 0.04 0.03 0.03 0.02 0.01 0.00 0.00 0.00 0.00 0.00 0.00 0.02 0.02
0.00 0.00 0.00 0.00 0.00 0.00 0.00 0.00 0.00 0.00 0.00 0.00 0.00 0.00 0.00 0.00 0.00 0.00 0.00 0.00 0.00 0.00 0.00 0.01 0.00 0.00 0.01 0.01 0.00 0.01 0.04 0.04 0.04 0.03 0.02 0.03 0.04 0.04 0.03 0.03 0.03 0.02 0.02
0.00 0.00 0.00 0.00 0.00 0.00 0.00 0.00 0.00 0.00 0.00 0.00 0.00 0.00 0.00 0.00 0.00 0.00 0.00 0.00 0.00 0.00 0.00 0.05 0.03 0.02 0.02 0.03 0.02 0.01 0.00 0.01 0.02 0.02 0.02 0.03 0.06 0.08 0.06 0.05 0.05 0.04 0.03
0.00 0.00 0.00 0.00 0.00 0.00 0.00 0.00 0.00 0.00 0.00 0.00 0.00 0.00 0.00 0.00 0.00 0.00 0.00 0.00 0.00 0.01 0.01 0.03 0.06 0.05 0.05 0.06 0.03 0.00 0.01 0.00 0.00 0.00 0.01 0.02 0.02 0.02 0.02 0.03 0.03 0.03 0.04
0.00 0.00 0.00 0.00 0.00 0.00 0.00 0.00 0.00 0.00 0.00 0.00 0.00 0.00 0.00 0.00 0.00 0.00 0.00 0.00 0.00 0.01 0.02 0.03 0.03 0.03 0.03 0.02 0.02 0.02 0.01 0.00 0.01 0.00 0.01 0.02 0.06 0.08 0.06 0.05 0.04 0.04 0.04
0.00 0.00 0.00 0.00 0.00 0.00 0.00 0.00 0.00 0.00 0.00 0.00 0.00 0.00 0.00 0.00 0.00 0.00 0.00 0.00 0.00 0.01 0.01 0.02 0.04 0.04 0.03 0.02 0.02 0.01 0.01 0.01 0.01 0.02 0.02 0.02 0.06 0.10 0.10 0.08 0.06 0.05 0.05
0.00 0.00 0.00 0.00 0.00 0.00 0.00 0.00 0.00 0.00 0.00 0.00 0.00 0.00 0.00 0.00 0.00 0.00 0.00 0.00 0.01 0.01 0.01 0.01 0.02 0.02 0.02 0.02 0.02 0.01 0.00 0.01 0.00 0.00 0.01 0.01 0.03 0.06 0.09 0.10 0.08 0.06 0.06
0.00 0.00 0.00 0.00 0.00 0.00 0.00 0.00 0.00 0.00 0.00 0.00 0.00 0.00 0.00 0.00 0.00 0.00 0.00 0.00 0.00 0.00 0.00 0.01 0.01 0.01 0.01 0.01 0.00 0.00 0.01 0.01 0.00 0.00 0.00 0.01 0.01 0.04 0.07 0.08 0.09 0.08 0.08
0.00 0.00 0.00 0.00 0.00 0.00 0.00 0.00 0.00 0.00 0.00 0.00 0.00 0.00 0.00 0.00 0.00 0.00 0.00 0.00 0.00 0.00 0.00 0.00 0.00 0.00 0.00 0.00 0.00 0.01 0.01 0.01 0.00 0.00 0.00 0.00 0.00 0.02 0.05 0.06 0.07 0.09 0.08
MSLP
1012.05 1012.28 1012.68 1013.31 1013.65 1013.83 1013.94 1013.85 1013.92 1013.86 1014.06 1014.20 1014.35 1014.46 1014.57 1014.76 1014.97 1015.12 1015.05 1014.90 1014.97 1015.15 1015.26 1015.40 1015.46 1015.47 1015.26 1014.88 1014.88 1015.14 1015.01 1014.77 1014.34 1013.50 1013.92 1014.30 1014.70 1014.74 1014.53 1014.72 1014.99 1014.76 1014.61
1012.51 1012.60 1012.72 1013.05 1013.63 1013.91 1013.75 1013.70 1013.48 1013.44 1013.54 1013.75 1013.83 1013.96 1014.06 1014.08 1014.28 1014.58 1014.68 1014.45 1014.63 1014.77 1014.79 1014.77 1014.69 1014.60 1014.83 1014.97 1014.83 1014.86 1015.04 1014.87 1014.64 1014.16 1013.99 1013.64 1014.29 1014.17 1014.40 1014.43 1014.25 1013.67 1013.55
1012.32 1012.36 1012.70 1012.81 1012.90 1013.15 1013.34 1013.33 1013.34 1013.35 1013.33 1013.20 1013.20 1013.42 1013.51 1013.54 1013.67 1013.87 1014.05 1014.05 1014.03 1014.03 1014.05 1014.14 1014.15 1014.24 1014.39 1014.10 1014.06 1013.83 1013.92 1014.50 1014.48 1014.47 1013.82 1013.36 1013.34 1013.54 1014.04 1014.24 1014.01 1013.73 1013.21
1012.81 1012.72 1012.93 1012.97 1012.91 1013.05 1013.19 1013.16 1013.06 1013.04 1013.07 1013.11 1013.00 1012.92 1012.88 1012.96 1012.97 1013.05 1013.12 1013.26 1013.29 1013.28 1013.35 1013.47 1013.60 1013.66 1013.84 1013.99 1013.76 1013.78 1013.73 1014.14 1014.30 1014.32 1013.67 1013.20 1012.98 1012.99 1013.43 1013.53 1013.76 1013.59 1013.03
1013.45 1013.30 1013.17 1013.33 1013.34 1013.32 1013.29 1013.28 1013.14 1012.97 1012.71 1012.71 1012.66 1012.64 1012.68 1012.65 1012.44 1012.54 1012.57 1012.45 1012.49 1012.34 1012.35 1012.47 1012.61 1012.71 1012.78 1013.14 1013.40 1013.41 1013.16 1013.25 1013.07 1013.57 1013.74 1013.48 1012.82 1012.05 1012.64 1012.54 1012.46 1012.36 1012.56
1013.92 1013.66 1013.49 1013.43 1013.40 1013.31 1013.22 1013.17 1013.14 1012.95 1012.77 1012.67 1012.56 1012.39 1012.25 1011.97 1011.75 1012.17 1012.50 1012.11 1012.05 1011.85 1011.65 1011.56 1011.75 1012.00 1012.24 1012.46 1012.67 1012.81 1012.90 1013.10 1012.92 1012.48 1012.74 1012.85 1012.48 1012.35 1012.26 1012.24 1011.71 1012.04 1012.22
1014.11 1014.04 1013.94 1013.81 1013.56 1013.45 1013.30 1013.08 1012.90 1012.77 1012.63 1012.48 1012.35 1012.23 1012.09 1011.92 1011.85 1012.04 1012.25 1012.02 1011.61 1011.05 1010.95 1011.15 1011.12 1010.65 1010.89 1011.21 1011.63 1011.94 1012.11 1012.26 1012.54 1012.35 1012.32 1012.38 1012.28 1012.43 1012.72 1012.82 1012.50 1012.27 1012.06
1014.38 1014.27 1014.20 1014.06 1013.85 1013.65 1013.35 1013.02 1012.83 1012.69 1012.51 1012.30 1012.09 1011.93 1011.80 1011.61 1011.64 1011.80 1011.89 1011.71 1011.03 1010.65 1010.41 1010.29 1010.40 1010.38 1010.36 1010.54 1010.49 1010.52 1010.84 1010.95 1011.17 1011.37 1011.57 1011.51 1011.60 1011.61 1012.19 1012.36 1012.34 1012.37 1012.29
1014.21 1014.29 1014.27 1014.23 1014.02 1013.71 1013.35 1012.97 1012.66 1012.41 1012.18 1011.94 1011.74 1011.58 1011.43 1011.19 1011.23 1011.35 1011.46 1010.88 1010.19 1009.89 1009.83 1009.69 1009.63 1009.66 1009.58 1009.78 1010.13 1009.67 1009.55 1009.34 1009.29 1009.77 1009.85 1010.15 1010.79 1011.17 1011.51 1011.72 1011.47 1011.38 1010.70
1014.21 1014.24 1014.19 1014.19 1014.00 1013.70 1013.38 1013.02 1012.70 1012.39 1011.91 1011.54 1011.12 1010.93 1010.80 1010.71 1010.69 1010.74 1010.81 1010.22 1009.34 1008.90 1008.74 1008.94 1009.04 1009.32 1009.13 1009.45 1009.81 1009.31 1009.15 1008.87 1008.73 1008.72 1009.54 1009.82 1009.84 1010.12 1010.97 1011.10 1010.62 1010.51 1010.35
1014.60 1014.80 1014.80 1014.76 1014.47 1013.94 1013.41 1013.22 1012.87 1012.59 1012.21 1011.60 1011.04 1010.58 1010.27 1010.05 1009.89 1010.00 1010.06 1009.91 1009.16 1008.36 1007.73 1007.59 1007.54 1007.78 1008.38 1009.04 1009.24 1008.84 1008.44 1008.56 1008.61 1008.50 1008.30 1008.22 1007.93 1008.32 1008.98 1009.29 1009.56 1009.46 1009.49
1015.01 1014.84 1014.74 1014.77 1014.52 1013.80 1013.49 1013.25 1012.81 1012.35 1012.04 1011.67 1011.38 1010.74 1009.39 1008.78 1008.72 1008.94 1009.19 1009.36 1009.29 1008.64 1007.74 1007.17 1007.01 1007.19 1007.56 1008.02 1008.60 1008.55 1008.44 1008.57 1008.49 1008.28 1007.80 1007.61 1006.70 1006.82 1006.99 1007.34 1007.65 1008.45 1008.42
1015.10 1014.97 1014.69 1014.29 1013.85 1013.33 1013.16 1012.75 1012.09 1011.56 1011.48 1011.34 1010.89 1010.04 1009.53 1009.00 1008.43 1007.92 1008.06 1008.33 1008.56 1008.82 1008.15 1007.32 1007.19 1007.18 1007.27 1007.55 1007.78 1007.69 1007.97 1007.80 1007.49 1007.48 1007.01 1006.43 1006.52 1006.04 1005.81 1006.19 1006.72 1007.03 1007.74
1015.24 1014.93 1014.29 1013.84 1013.43 1013.00 1012.64 1012.04 1011.75 1011.34 1011.19 1011.08 1010.96 1010.56 1010.00 1009.49 1008.92 1008.28 1008.19 1008.25 1008.21 1008.12 1007.80 1007.35 1006.89 1006.75 1006.62 1006.67 1006.73 1007.24 1007.38 1006.99 1006.70 1006.43 1006.07 1006.07 1005.77 1005.87 1005.10 1005.31 1005.91 1006.64 1007.17
1015.06 1014.72 1014.45 1014.04 1013.56 1013.02 1012.59 1012.13 1011.92 1011.32 1011.05 1011.18 1010.97 1010.46 1009.96 1009.48 1008.87 1008.74 1008.86 1008.57 1007.91 1007.46 1007.70 1006.88 1006.32 1006.14 1006.20 1006.29 1006.20 1006.01 1005.79 1005.53 1005.68 1005.81 1005.51 1005.17 1005.15 1005.64 1005.51 1005.48 1005.57 1005.59 1006.17
1015.13 1014.79 1014.49 1014.18 1013.76 1013.30 1012.75 1012.12 1011.74 1011.35 1010.93 1010.60 1010.39 1010.41 1009.58 1009.20 1008.87 1008.67 1008.60 1008.44 1008.15 1007.97 1007.62 1006.75 1005.53 1005.14 1005.17 1005.16 1005.12 1005.05 1004.84 1004.36 1004.23 1004.52 1004.79 1004.78 1004.72 1004.72 1004.65 1005.26 1005.36 1005.24 1005.33
1015.16 1014.84 1014.35 1013.99 1013.55 1013.10 1012.76 1012.24 1011.41 1010.72 1010.36 1009.78 1009.55 1009.31 1009.26 1008.90 1008.49 1008.36 1008.21 1007.96 1007.62 1007.66 1006.97 1005.97 1005.30 1004.68 1004.45 1004.17 1003.72 1003.50 1003.11 1002.55 1002.66 1003.30 1003.63 1003.55 1003.52 1003.59 1003.57 1003.47 1003.46 1004.02 1004.25
1014.81 1014.58 1014.16 1013.78 1013.47 1013.10 1012.69 1012.32 1011.76 1011.01 1010.21 1009.65 1009.20 1009.27 1008.84 1008.96 1008.60 1008.26 1007.86 1007.56 1006.95 1006.50 1005.49 1004.34 1003.83 1003.71 1003.35 1003.17 1002.98 1002.57 1002.50 1002.38 1002.38 1002.51 1002.41 1002.43 1002.27 1002.20 1002.16 1001.91 1001.91 1001.93 1002.45
1014.02 1014.03 1013.99 1013.62 1013.34 1013.10 1012.57 1012.28 1011.87 1011.43 1010.86 1010.05 1009.41 1008.98 1008.93 1009.05 1008.58 1007.70 1007.32 1007.23 1006.12 1004.94 1003.67 1002.81 1002.43 1002.18 1002.07 1002.02 1001.93 1001.87 1001.79 1001.82 1001.79 1001.78 1001.83 1001.78 1001.63 1001.71 1001.50 1001.32 1000.61 1000.56 1000.55
1013.14 1013.81 1013.55 1012.96 1012.68 1012.57 1012.38 1012.42 1012.07 1011.50 1010.98 1010.63 1010.24 1009.76 1009.70 1009.34 1008.33 1007.52 1007.11 1006.24 1005.47 1004.60 1003.63 1002.41 1001.79 1001.44 1001.04 1001.11 1001.04 1001.33 1001.60 1001.25 1001.06 1001.12 1001.05 1000.97 1000.85 1000.82 1001.03 1000.91 1000.78 1000.73 1000.53
1013.05 1012.96 1013.10 1012.56 1012.28 1012.01 1011.81 1011.47 1011.54 1011.50 1011.48 1011.21 1010.79 1010.44 1010.73 1009.92 1008.96 1007.97 1007.11 1006.17 1004.94 1003.94 1003.05 1002.23 1001.58 1001.10 1000.81 1000.63 1000.74 1000.98 1001.07 1000.99 1000.88 1000.74 1000.69 1000.65 1000.46 999.85 999.65 999.81 999.86 999.89 1000.03
1013.35 1013.08 1012.89 1012.65 1012.44 1012.08 1011.93 1011.43 1011.22 1011.28 1011.59 1011.43 1011.10 1010.56 1010.45 1009.81 1009.13 1008.43 1007.49 1006.66 1005.73 1004.71 1003.16 1002.01 1001.44 1001.26 1000.77 1000.72 1000.58 1000.44 1000.27 1000.28 1000.24 1000.35 1000.24 999.93 999.45 999.20 999.18 999.00 998.75 998.57 998.66
1013.59 1013.20 1012.95 1012.68 1012.53 1012.17 1011.68 1011.40 1011.26 1011.48 1011.57 1011.48 1011.32 1010.92 1010.44 1010.01 1009.43 1008.84 1008.11 1007.39 1006.52 1005.60 1004.80 1003.93 1003.34 1002.88 1002.60 1002.30 1001.83 1001.27 1000.66 1000.65 1000.24 999.59 999.24 999.23 999.01 999.07 998.84 998.52 998.29 998.15 998.18
1013.33 1013.23 1012.97 1012.77 1012.60 1012.22 1011.89 1011.52 1011.36 1011.60 1011.84 1011.51 1011.27 1011.04 1010.67 1010.25 1009.81 1009.29 1008.71 1008.03 1007.33 1006.48 1005.69 1005.25 1004.59 1004.28 1003.58 1003.00 1002.86 1002.57 1002.32 1002.33 1002.07 1001.32 1000.60 999.81 999.11 998.66 998.39 997.80 997.31 996.99 996.87
1012.99 1013.12 1012.92 1012.81 1012.57 1012.34 1012.01 1011.67 1011.47 1011.56 1011.47 1011.32 1011.39 1011.21 1010.81 1010.42 1009.89 1009.51 1009.11 1008.56 1007.85 1007.05 1006.27 1005.92 1005.49 1004.75 1004.03 1003.69 1003.51 1003.18 1002.67 1002.20 1001.81 1001.34 1000.63 999.79 998.78 998.13 997.55 996.96 996.29 995.69 995.56
1012.86 1012.93 1012.85 1012.72 1012.50 1012.26 1011.90 1011.74 1011.52 1011.55 1011.47 1011.34 1011.33 1011.22 1010.96 1010.59 1010.22 1009.91 1009.43 1008.78 1008.27 1007.60 1007.04 1006.42 1005.84 1005.17 1004.20 1004.12 1003.85 1003.35 1002.56 1001.88 1001.08 1000.67 1000.20 999.24 998.09 997.22 996.61 995.73 995.00 994.42 994.23
Thickness
5799 5798 5796 5789 5786 5784 5782 5783 5782 5784 5782 5781 5779 5776 5775 5773 5772 5770 5770 5771 5769 5767 5768 5765 5763 5765 5766 5770 5771 5769 5768 5769 5763 5777 5779 5778 5773 5777 5781 5781 5780 5783 5786
5795 5794 5792 5788 5785 5781 5782 5782 5784 5784 5785 5783 5782 5779 5777 5776 5774 5771 5769 5772 5769 5765 5765 5765 5764 5767 5764 5764 5766 5765 5763 5766 5763 5762 5772 5776 5773 5779 5778 5779 5781 5787 5789
5792 5793 5789 5787 5786 5784 5783 5783 5783 5783 5783 5784 5783 5779 5777 5778 5776 5774 5771 5770 5771 5770 5768 5766 5766 5765 5762 5765 5766 5767 5768 5765 5763 5760 5765 5777 5778 5780 5774 5774 5778 5782 5787
5784 5785 5782 5782 5782 5781 5781 5781 5782 5782 5781 5780 5781 5780 5780 5779 5778 5776 5774 5772 5771 5772 5771 5769 5767 5765 5762 5760 5762 5762 5763 5760 5759 5757 5763 5768 5773 5777 5774 5769 5767 5774 5778
5773 5775 5775 5774 5775 5775 5775 5775 5777 5778 5780 5779 5778 5778 5777 5776 5777 5775 5774 5773 5772 5772 5772 5771 5771 5770 5768 5764 5760 5760 5761 5761 5764 5757 5754 5758 5765 5773 5767 5773 5772 5776 5774
5762 5765 5768 5768 5768 5768 5769 5770 5771 5772 5773 5773 5772 5773 5773 5776 5777 5770 5766 5770 5769 5769 5768 5770 5769 5767 5765 5762 5759 5758 5759 5754 5756 5760 5757 5754 5760 5765 5769 5769 5774 5766 5759
5755 5756 5757 5758 5759 5760 5762 5763 5763 5764 5766 5766 5766 5766 5765 5768 5767 5763 5760 5762 5765 5768 5767 5764 5763 5769 5767 5766 5760 5757 5756 5757 5755 5758 5756 5755 5755 5758 5757 5755 5759 5762 5761
5744 5746 5747 5748 5749 5751 5752 5754 5755 5757 5757 5757 5758 5759 5759 5761 5759 5755 5753 5755 5759 5762 5762 5761 5759 5760 5760 5760 5760 5759 5758 5759 5759 5758 5759 5760 5760 5761 5759 5757 5756 5756 5759
5738 5736 5737 5737 5739 5742 5744 5746 5748 5749 5749 5750 5751 5751 5751 5753 5751 5747 5744 5750 5753 5755 5755 5755 5754 5753 5756 5752 5748 5754 5756 5763 5766 5762 5763 5764 5759 5756 5755 5757 5756 5751 5756
5732 5731 5731 5730 5730 5732 5733 5735 5737 5740 5742 5743 5745 5745 5745 5744 5743 5740 5737 5741 5745 5749 5749 5746 5744 5742 5744 5739 5737 5743 5742 5753 5755 5760 5757 5757 5756 5754 5750 5753 5757 5751 5751
5722 5719 5718 5717 5717 5721 5724 5724 5725 5725 5726 5729 5733 5735 5737 5738 5738 5733 5729 5730 5733 5738 5741 5740 5742 5739 5734 5728 5727 5734 5740 5743 5740 5743 5749 5755 5761 5759 5756 5757 5756 5756 5751
5709 5709 5707 5705 5706 5711 5712 5712 5713 5715 5716 5717 5716 5720 5731 5735 5733 5729 5723 5718 5718 5721 5726 5730 5731 5728 5725 5720 5718 5723 5724 5725 5727 5729 5733 5739 5753 5754 5759 5760 5760 5753 5756
5698 5697 5698 5700 5701 5704 5703 5703 5708 5711 5708 5706 5707 5711 5713 5716 5720 5719 5714 5707 5703 5700 5706 5711 5710 5711 5711 5709 5711 5715 5713 5717 5722 5721 5724 5733 5735 5748 5756 5753 5755 5751 5747
5686 5687 5692 5693 5694 5696 5697 5699 5699 5700 5698 5697 5694 5693 5695 5696 5697 5700 5698 5695 5689 5688 5689 5694 5698 5701 5703 5704 5705 5703 5705 5710 5715 5719 5723 5727 5733 5734 5744 5750 5745 5742 5735
5678 5679 5679 5680 5681 5683 5684 5685 5684 5687 5687 5683 5681 5682 5680 5679 5681 5678 5674 5676 5679 5679 5674 5682 5687 5688 5688 5689 5691 5696 5701 5707 5708 5709 5715 5721 5722 5720 5726 5734 5734 5737 5730
5664 5665 5666 5666 5666 5667 5668 5671 5673 5673 5673 5672 5669 5666 5671 5670 5667 5663 5661 5659 5658 5656 5661 5666 5677 5681 5682 5683 5684 5686 5691 5699 5704 5705 5706 5709 5712 5715 5717 5716 5721 5723 5725
5652 5653 5655 5655 5657 5658 5658 5660 5662 5666 5666 5666 5664 5661 5658 5657 5655 5652 5650 5648 5648 5644 5652 5659 5663 5670 5674 5679 5685 5688 5692 5701 5703 5701 5702 5707 5710 5712 5715 5718 5721 5721 5722
5644 5643 5646 5647 5647 5648 5649 5648 5649 5652 5654 5655 5657 5651 5649 5640 5641 5641 5640 5639 5647 5641 5651 5659 5662 5663 5668 5672 5677 5683 5686 5689 5691 5695 5700 5703 5707 5709 5711 5716 5718 5723 5723
5640 5638 5636 5637 5638 5637 5638 5637 5637 5637 5638 5642 5643 5643 5638 5630 5630 5634 5633 5634 5643 5648 5655 5659 5662 5663 5665 5667 5670 5674 5679 5680 5683 5687 5691 5694 5699 5699 5702 5707 5715 5718 5724
5636 5628 5629 5633 5633 5630 5628 5624 5624 5627 5628 5628 5627 5629 5623 5619 5622 5625 5625 5631 5633 5635 5640 5648 5653 5655 5661 5661 5663 5662 5663 5672 5676 5679 5683 5687 5692 5694 5692 5696 5699 5702 5710
5626 5626 5621 5626 5626 5625 5623 5624 5620 5618 5615 5614 5615 5613 5604 5609 5610 5613 5615 5618 5624 5626 5629 5635 5640 5644 5646 5650 5651 5651 5654 5659 5664 5668 5672 5676 5681 5690 5696 5697 5698 5700 5702
5613 5614 5614 5613 5613 5613 5612 5615 5615 5612 5605 5604 5603 5605 5598 5601 5601 5601 5604 5604 5606 5609 5619 5627 5630 5631 5635 5637 5640 5645 5651 5654 5657 5658 5663 5671 5679 5685 5687 5690 5696 5698 5701
5602 5603 5604 5604 5602 5602 5605 5606 5605 5600 5597 5595 5593 5592 5592 5591 5590 5590 5591 5591 5592 5594 5597 5601 5605 5608 5611 5614 5621 5628 5637 5642 5646 5654 5661 5665 5671 5672 5676 5680 5685 5688 5690
5595 5594 5594 5593 5592 5593 5594 5595 5595 5589 5584 5586 5585 5582 5581 5580 5578 5577 5578 5578 5579 5580 5584 5586 5590 5592 5595 5599 5603 5607 5612 5614 5618 5627 5636 5647 5657 5663 5666 5674 5680 5686 5690
5589 5586 5585 5583 5583 5583 5584 5585 5584 5581 5580 5578 5573 5571 5570 5569 5570 5568 5566 5566 5569 5570 5573 5574 5577 5582 5588 5590 5591 5594 5600 5605 5610 5615 5623 5635 5646 5654 5661 5668 5677 5684 5689
5581 5578 5577 5576 5576 5576 5577 5576 5575 5572 5571 5569 5565 5562 5560 5559 5558 5556 5556 5557 5558 5560 5561 5565 5565 5570 5578 5578 5580 5584 5591 5597 5604 5608 5613 5625 5636 5647 5654 5664 5673 5681 5685